Regional Weather Roundup
Issued by NWS

Home | Current Version | Previous Version | Graphics & Text | Print | Product List | Glossary On
Versions: 1 2 3 4 5 6 7 8 9 10 11 12 13 14 15 16 17 18 19 20 21 22 23 24 25 26 27
000
ASUS45 KSLC 191310
RWRUT

UTAH REGIONAL WEATHER ROUNDUP
NATIONAL WEATHER SERVICE SALT LAKE CITY UT
700 AM MDT THU APR 19 2018

UTZ001>011-023>025-191400-

NORTHERN UTAH

CITY           SKY/WX    TMP DP  RH WIND       PRES   REMARKS
BRIGHAM CITY   CLOUDY    45  24  44 N8        29.88F
DUGWAY         CLOUDY    40  20  43 VRB5      29.86S
HILL AFB       MOCLDY    48  10  21 E17       29.88F
LOGAN          CLOUDY    42  30  62 NW5       29.91F
OGDEN          MOCLDY    44  23  43 W5        29.87F
SALT LAKE CITY MOCLDY    47  25  42 S8        29.87F
TOOELE VALLEY  MOCLDY    43  21  42 S12       29.86F
WENDOVER       CLOUDY    46  18  32 CALM      29.85F
HEBER CITY       N/A     34  18  51 CALM      29.94S
WEST JORDAN    MOCLDY    41  20  43 S6        29.89F

$$

UTZ011>015-024>027-191400-

CENTRAL/NORTHEAST UTAH

CITY           SKY/WX    TMP DP  RH WIND       PRES   REMARKS
PROVO AIRPORT  CLOUDY    47  14  26 E9        29.89F
MOAB/CANYONLAN CLOUDY    43   7  22 SE12      29.96S
DELTA          CLOUDY    41  27  56 NE6       29.86F
PRICE          CLOUDY    37   3  24 N3        29.98F
RICHFIELD      CLEAR     32  14  47 W5        29.91F WCI  27
ROOSEVELT      CLOUDY    34  21  60 CALM      30.05F
VERNAL         CLOUDY    39  12  33 NW3       30.02F

$$

UTZ013>016-019>022-027-191400-

SOUTHERN UTAH

CITY           SKY/WX    TMP DP  RH WIND       PRES   REMARKS
BRYCE CANYON   MOCLDY    31   1  28 SE7       29.97F WCI  24
CEDAR CITY     CLOUDY    49   7  18 SE12G21   29.84F
MILFORD        CLOUDY    37  28  70 SW7       29.83F WCI  32
ST GEORGE      CLOUDY    55  12  18 SE5       29.82F
HANKSVILLE     MOCLDY    32  -8  18 CALM      29.99S
KANAB          CLEAR     37  10  32 CALM      29.95F
BLANDING         N/A     41  -2  16 SE5       30.13S

$$

REGIONAL REPORTS     COLORADO/ARIZONA

CITY           SKY/WX    TMP DP  RH WIND       PRES   REMARKS
CRAIG, CO      PTCLDY    29  19  66 CALM      30.08F
GRAND JUNCTION CLOUDY    44  14  29 SE12      30.01S
RIFLE, CO      MOCLDY    31  22  69 CALM      30.08S
MONTROSE, CO   CLOUDY    34  12  40 S6        30.09S WCI  29
CORTEZ, CO     MOCLDY    51   3  14 SE16G29   30.08F
COLORADO CITY    N/A     43  16  33 SE3       29.92F
PAGE, AZ       MOCLDY    46  18  32 CALM      29.93S
GRAND CANYON   PTCLDY    20   0  41 NE5       29.98F WCI  13
KINGMAN, AZ    CLEAR     48  10  21 S6        29.84F
FLAGSTAFF, AZ  CLEAR     22   5  48 CALM      30.00F

$$

REGIONAL REPORTS    NEVADA/IDAHO/WYOMING

CITY           SKY/WX    TMP DP  RH WIND       PRES   REMARKS
LAS VEGAS, NV  MOCLDY    58  25  28 SW13      29.76S
ELY, NY        CLOUDY    39  12  33 S9        29.82F WCI  33
ELKO, NV       CLOUDY    37  28  70 SW10      29.83S WCI  30
POCATELLO, ID  CLOUDY    36  28  73 N5        29.94S WCI  32
BURLEY, ID     CLOUDY    40  24  53 NE10G17   29.88F WCI  33
FORT BRIDGER,  CLOUDY    31   8  38 N5        30.04F WCI  26
EVANSTON, WY   CLOUDY    34  10  37 E13       29.98F WCI  25
ROCK SPRINGS,  CLOUDY    30  11  45 E8        30.05F WCI  22
KEMMERER, WY   CLOUDY    32   9  37 N18       30.02S WCI  20

$$




USA.gov is the U.S. government's official web portal to all federal, state and local government web resources and services.